Погода в Десятовой

Россия / Тюменская область     56°15′18″N   68°54′34″E
темп.,
°C
ветер,
м/с
пор.,
м/с
влажн.,
%
обл.,
%
осадки,
мм/ч
давл.,
гПа
погр.,
м
22 октября, пт
пт2223:00+1сз6995100 0.6 1003716
02:000з6118039 0.2 1005612
05:00−2зюз510815 0.2 1006324
08:00−1ююз51377100 0.0 1007504
11:00+2юз8126589 0.0 1006920
14:00+2ююз71278100 0.0 10061090
17:00+2юз71285100 0.1 1007837
20:00+3ююз71390100 0.0 1006570
23 октября, сб
сб2323:00+4ююз71590100 0.0 1006493
02:00+5ююз81693100 1.0 1004698
05:00+6юз81588100 2.3 1002671
08:00+6зюз91682100 0.0 1002684
11:00+8зюз9167759 0.0 1004836
14:00+11з9146997 0.0 10061166
17:00+10зюз71474100 0.1 10071054
20:00+8зюз815760 0.0 1009745
24 октября, вс
вс2423:00+7зюз716775 0.0 1011670
02:00+7зюз7148261 0.0 1012536
05:00+6зюз6138843 0.0 1014452
08:00+5зюз511916 0.0 1015344
11:00+8зюз5975100 0.0 1015515
14:00+9ююз5969100 0.0 1015645
17:00+9ю51080100 0.3 1013510
20:00+10ююз91681100 1.2 10091016
25 октября, пн
пн2523:00+9юз91572100 1.3 1008758
02:00+9зюз81484100 0.1 1009999
05:00+6з7127564 0.1 1011807
08:00+4зюз4108434 0.0 1014434
11:00+6з4571100 0.0 1015786
14:00+7зюз346495 0.0 1016777
17:00+6ююз2368100 0.0 101553
20:00+6ююв1172100 0.1 101420
26 октября, вт
вт2623:00+5вюв3677100 0.2 1012249
02:00+6ю51094100 0.9 1009505
05:00+6ююз51088100 2.1 1007472
08:00+6зюз4795100 1.6 1005487
11:00+2сз51099100 4.0 1008346
14:00+2сз61196100 0.3 1009646
17:000ссз611735 0.3 1012846
20:00−1ссз611735 0.0 1015665